CAPE
0 0 0 0 0 0 0 0 0 0 0 0 0 0 0 0 0 0 0 1 4 454 67 249 429 869 739 947 282 214 169 164 198 204 159 73 13 0 0 0 0 0 277 307 484
0 0 0 0 0 0 0 0 0 0 0 0 0 0 0 0 0 0 3 6 264 646 62 212 708 579 766 1138 353 37 35 29 156 163 110 49 34 5 0 0 0 3 305 453 556
0 0 0 0 0 0 0 0 0 0 0 0 0 0 0 0 0 0 6 234 359 473 596 440 725 260 662 1005 679 95 63 45 87 120 62 42 29 80 3 0 0 10 404 589 616
0 0 0 0 0 0 0 0 0 0 0 0 0 0 0 0 0 0 41 288 373 436 480 354 305 470 996 915 1043 756 354 231 124 111 88 22 53 119 49 10 12 10 350 611 678
0 0 0 0 0 0 0 0 0 0 0 0 0 0 0 0 0 2 553 827 124 318 157 381 440 403 510 690 796 1008 646 437 229 281 88 23 48 83 36 25 34 7 408 536 626
0 0 0 0 0 0 0 0 0 0 0 0 0 0 0 0 0 0 0 0 119 129 176 353 372 503 599 425 328 299 481 130 282 259 61 87 90 83 43 27 3 0 20 313 498
0 0 0 0 0 0 0 0 0 0 0 0 0 0 0 0 0 0 0 0 0 294 389 296 343 494 466 334 209 173 34 68 195 183 118 129 152 127 60 84 49 0 0 0 0
0 0 0 0 0 0 0 0 0 0 0 0 0 0 0 0 0 0 0 0 0 0 54 234 432 444 578 338 229 204 54 104 164 128 143 73 137 91 92 124 70 65 12 0 0
0 0 0 0 0 0 0 0 0 0 0 0 0 0 0 0 0 0 0 0 0 56 86 127 133 163 230 275 228 78 89 30 53 68 177 124 95 109 147 124 62 54 58 33 0
0 0 0 0 0 0 0 0 0 0 0 0 0 0 0 0 0 0 0 0 2 59 52 61 115 146 185 190 211 158 143 145 93 84 84 65 85 142 121 122 108 58 64 88 61
0 0 0 0 0 0 0 0 0 0 0 0 0 0 0 0 0 0 0 0 20 61 26 40 107 140 206 169 148 177 261 237 207 204 92 63 83 151 157 83 81 66 59 80 84
0 0 0 0 0 0 0 0 0 0 0 0 0 0 0 0 0 0 0 0 0 14 6 0 32 70 57 81 90 155 222 238 163 151 190 157 86 147 109 77 109 79 60 110 90
0 0 0 0 0 0 0 0 0 0 0 0 0 0 0 0 0 0 0 0 0 0 0 2 31 57 75 83 70 114 94 50 62 102 163 220 204 149 154 119 91 46 87 116 65
0 0 0 0 0 0 0 0 0 0 0 0 0 0 0 0 0 0 0 0 0 0 0 0 31 13 1 0 0 52 65 17 89 167 176 154 232 133 198 194 135 112 133 107 78
0 0 0 0 0 0 0 0 0 0 0 0 0 0 0 0 0 0 0 0 0 0 0 0 0 0 0 0 0 0 2 0 87 197 105 74 151 281 218 195 171 93 106 84 83
0 0 0 0 0 0 0 0 0 0 0 0 0 0 0 0 0 0 0 0 0 0 0 0 0 0 0 0 0 0 0 12 20 73 12 19 66 195 54 63 69 45 74 100 87
0 0 0 0 0 0 0 0 0 0 0 0 0 0 0 0 0 0 0 0 0 0 0 0 0 0 0 0 0 3 0 0 1 4 1 8 2 81 0 13 56 3 35 115 86
0 0 0 0 0 0 0 0 0 0 0 0 0 0 0 0 0 0 0 0 0 0 0 0 0 0 0 0 0 0 0 0 0 0 0 22 1 19 122 64 53 116 59 125 110
0 0 0 0 0 0 0 0 0 0 0 0 0 0 0 0 0 0 0 0 0 0 0 0 0 0 0 0 0 0 0 0 0 0 3 0 0 97 232 160 122 86 127 71 128
0 0 0 0 0 0 0 0 0 0 0 0 0 0 0 0 0 0 0 0 0 0 0 0 0 0 0 0 0 0 0 0 0 0 0 0 40 26 179 336 202 196 371 228 136
0 0 0 0 0 0 0 0 0 0 0 0 0 0 0 0 0 0 0 0 0 0 0 0 0 0 0 0 0 0 0 0 0 0 0 0 1 145 210 215 398 550 179 195 266
0 0 0 0 0 0 0 0 0 0 0 0 0 0 0 0 0 0 0 0 0 0 0 0 0 0 0 0 0 0 0 0 0 0 0 1 0 52 159 315 527 783 481 213 238
0 0 0 0 0 0 0 0 0 0 0 0 0 0 0 0 0 0 0 0 0 0 0 0 0 0 0 0 0 0 0 0 0 0 0 0 0 110 410 303 522 645 534 451 335
0 0 0 0 0 0 0 0 0 0 0 0 0 0 0 0 0 0 0 0 0 0 0 0 0 0 0 0 0 0 0 0 0 4 8 1 9 145 203 290 496 488 466 498 518
0 0 0 0 0 0 0 0 0 0 0 0 0 0 0 0 0 0 0 1 13 0 2 0 0 0 0 0 0 0 0 0 0 11 41 66 30 44 141 224 498 344 611 741 587
0 0 0 0 0 0 0 0 0 0 0 0 0 0 0 0 0 0 0 0 31 25 9 20 27 14 8 3 17 0 64 86 91 266 181 132 134 190 207 259 371 609 766 717 425
0 0 0 0 0 0 0 0 0 0 0 0 0 0 0 0 0 0 0 0 47 87 73 42 85 94 48 86 85 78 90 150 121 126 293 405 549 281 246 228 322 589 1009 699 534
CIN
-0 -0 -0 -0 -0 -0 -0 -0 -0 -0 -0 -0 -0 -0 -0 -0 -0 -0 -0 -11 -24 -520 -439 -96 -108 -158 -146 -210 -190 -323 -181 -145 -134 -132 -104 -47 -90 -0 -0 -0 -0 -0 -238 -181 -148
-0 -0 -0 -0 -0 -0 -0 -0 -0 -0 -0 -0 -0 -0 -0 -0 -0 -0 -31 -48 -588 -483 -88 -197 -169 -197 -234 -175 -302 -314 -32 -97 -210 -144 -61 -20 -59 -3 -0 -0 -0 -22 -268 -201 -136
-0 -0 -0 -0 -0 -0 -0 -0 -0 -0 -0 -0 -0 -0 -0 -0 -0 -0 -45 -621 -587 -540 -87 -106 -154 -225 -156 -175 -237 -85 -164 -203 -37 -28 -29 -39 -32 -38 -32 -0 -0 -423 -265 -221 -178
-0 -0 -0 -0 -0 -0 -0 -0 -0 -0 -0 -0 -0 -0 -0 -0 -0 -0 -674 -591 -576 -63 -136 -29 -82 -192 -153 -145 -187 -165 -209 -174 -47 -46 -131 -40 -28 -36 -53 -76 -113 -211 -276 -259 -193
-0 -0 -0 -0 -0 -0 -0 -0 -0 -0 -0 -0 -0 -0 -0 -0 -0 -168 -573 -517 -90 -92 -173 -51 -59 -62 -146 -152 -164 -199 -127 -128 -117 -54 -54 -72 -48 -48 -42 -52 -88 -160 -280 -244 -185
-0 -0 -0 -0 -0 -0 -0 -0 -0 -0 -0 -0 -0 -0 -0 -0 -0 -0 -0 -0 -127 -127 -56 -42 -84 -103 -119 -147 -117 -149 -145 -39 -94 -33 -55 -6 -25 -23 -36 -27 -11 -0 -35 -257 -195
-0 -0 -0 -0 -0 -0 -0 -0 -0 -0 -0 -0 -0 -0 -0 -0 -0 -0 -0 -0 -0 -39 -45 -78 -205 -156 -157 -117 -78 -86 -121 -87 -25 -16 -14 -12 -48 -25 -55 -41 -52 -0 -0 -0 -0
-0 -0 -0 -0 -0 -0 -0 -0 -0 -0 -0 -0 -0 -0 -0 -0 -0 -0 -0 -0 -0 -0 -205 -107 -240 -227 -199 -172 -68 -50 -110 -61 -40 -46 -39 -45 -45 -45 -80 -45 -67 -117 -94 -0 -0
-0 -0 -0 -0 -0 -0 -0 -0 -0 -0 -0 -0 -0 -0 -0 -0 -0 -0 -0 -0 -0 -114 -96 -68 -50 -46 -54 -69 -70 -94 -86 -109 -104 -103 -29 -30 -33 -40 -68 -67 -70 -80 -89 -91 -0
-0 -0 -0 -0 -0 -0 -0 -0 -0 -0 -0 -0 -0 -0 -0 -0 -0 -0 -0 -0 -123 -205 -178 -143 -80 -64 -60 -83 -71 -58 -62 -52 -43 -14 -46 -40 -43 -71 -91 -94 -84 -64 -81 -79 -79
-0 -0 -0 -0 -0 -0 -0 -0 -0 -0 -0 -0 -0 -0 -0 -0 -0 -0 -0 -0 -399 -271 -312 -205 -141 -102 -76 -75 -69 -101 -38 -41 -29 -21 -12 -128 -59 -115 -87 -102 -65 -68 -75 -87 -50
-0 -0 -0 -0 -0 -0 -0 -0 -0 -0 -0 -0 -0 -0 -0 -0 -0 -0 -0 -0 -0 -248 -254 -0 -210 -104 -84 -104 -108 -75 -56 -71 -96 -92 -31 -16 -82 -256 -66 -94 -83 -85 -76 -88 -57
-0 -0 -0 -0 -0 -0 -0 -0 -0 -0 -0 -0 -0 -0 -0 -0 -0 -0 -0 -0 -0 -0 -0 -200 -108 -138 -105 -103 -124 -115 -157 -69 -116 -143 -42 -23 -31 -42 -210 -107 -98 -103 -110 -113 -88
-0 -0 -0 -0 -0 -0 -0 -0 -0 -0 -0 -0 -0 -0 -0 -0 -0 -0 -0 -0 -0 -0 -0 -0 -167 -138 -38 -37 -42 -91 -103 -102 -143 -69 -69 -45 -25 -59 -46 -115 -184 -123 -112 -77 -92
-0 -0 -0 -0 -0 -0 -0 -0 -0 -0 -0 -0 -0 -0 -0 -0 -0 -0 -0 -0 -0 -0 -0 -0 -1 -0 -0 -0 -0 -0 -3 -0 -157 -70 -107 -128 -55 -34 -43 -83 -112 -86 -117 -38 -41
-0 -0 -0 -0 -0 -0 -0 -0 -0 -0 -0 -0 -0 -0 -0 -0 -0 -0 -0 -0 -0 -0 -0 -0 -0 -0 -0 -0 -0 -0 -1 -8 -0 -66 -33 -73 -85 -52 -34 -142 -144 -143 -102 -98 -201
-0 -0 -0 -0 -0 -0 -0 -0 -0 -0 -0 -0 -0 -0 -0 -0 -0 -0 -0 -0 -0 -0 -0 -0 -0 -0 -0 -0 -0 -4 -0 -0 -3 -8 -1 -50 -70 -60 -0 -261 -111 -328 -57 -158 -404
-0 -0 -0 -0 -0 -0 -0 -0 -0 -0 -0 -0 -0 -0 -0 -0 -0 -0 -0 -0 -0 -0 -0 -0 -0 -0 -0 -0 -0 -0 -0 -0 -0 -0 -0 -117 -22 -41 -531 -351 -206 -560 -529 -557 -368
-0 -0 -0 -0 -0 -0 -0 -0 -0 -0 -0 -0 -0 -0 -0 -0 -0 -0 -0 -0 -0 -0 -0 -0 -0 -0 -0 -0 -0 -0 -0 -0 -0 -0 -1 -0 -0 -165 -616 -593 -497 -440 -505 -377 -193
-0 -0 -0 -0 -0 -0 -0 -0 -0 -0 -0 -0 -0 -0 -0 -0 -0 -0 -0 -0 -0 -0 -0 -0 -0 -0 -0 -0 -0 -0 -0 -0 -0 -0 -0 -0 -163 -89 -416 -513 -605 -554 -520 -302 -154
-0 -0 -0 -0 -0 -0 -0 -0 -0 -0 -0 -0 -0 -0 -0 -0 -0 -0 -0 -0 -0 -0 -0 -0 -0 -0 -0 -0 -0 -0 -0 -0 -0 -0 -0 -0 -26 -318 -173 -449 -556 -508 -336 -142 -353
-0 -0 -0 -0 -0 -0 -0 -0 -0 -0 -0 -0 -0 -0 -0 -0 -0 -0 -0 -0 -0 -0 -0 -0 -0 -0 -0 -0 -0 -0 -0 -0 -0 -0 -0 -1 -0 -496 -171 -585 -525 -492 -535 -154 -130
-0 -0 -0 -0 -0 -0 -0 -0 -0 -0 -0 -0 -0 -0 -0 -0 -0 -0 -0 -0 -0 -0 -0 -0 -0 -0 -0 -0 -0 -0 -0 -0 -0 -0 -2 -0 -0 -353 -679 -587 -215 -235 -73 -79 -136
-0 -0 -0 -0 -0 -0 -0 -0 -0 -0 -0 -0 -0 -0 -0 -0 -0 -0 -0 -0 -0 -0 -0 -0 -0 -0 -0 -0 -0 -0 -0 -0 -0 -12 -16 -1 -38 -252 -735 -438 -257 -76 -138 -303 -714
-0 -0 -0 -0 -0 -0 -0 -0 -0 -0 -0 -0 -0 -0 -0 -0 -0 -0 -0 -1 -7 -0 -13 -0 -0 -0 -0 -0 -0 -0 -0 -0 -0 -35 -13 -27 -103 -123 -330 -411 -173 -98 -570 -602 -614
-0 -0 -0 -0 -0 -0 -0 -0 -0 -0 -0 -0 -0 -0 -0 -0 -0 -0 -0 -0 -5 -5 -2 -15 -68 -81 -71 -73 -84 -16 -123 -67 -44 -68 -43 -27 -51 -26 -745 -352 -201 -48 -546 -533 -596
-0 -0 -0 -0 -0 -0 -0 -0 -0 -0 -0 -0 -0 -0 -0 -0 -0 -0 -0 -0 -25 -9 -11 -98 -96 -69 -68 -60 -62 -61 -119 -57 -48 -138 -77 -84 -91 -39 -460 -309 -196 -639 -498 -514 -497
Wind_Speed
nan nan nan nan nan nan nan nan nan nan nan nan nan nan nan nan nan nan nan nan nan 17 nan 8 15 17 15 13 8 12 9 11 8 4 12 nan nan nan nan nan nan nan 8 9 14
nan nan nan nan nan nan nan nan nan nan nan nan nan nan nan nan nan nan nan nan 20 21 nan 19 17 15 16 16 19 nan nan nan 12 8 9 nan nan nan nan nan nan nan 12 16 15
nan nan nan nan nan nan nan nan nan nan nan nan nan nan nan nan nan nan nan 16 22 28 18 13 22 22 17 16 14 nan nan nan nan 19 nan nan nan nan nan nan nan nan 16 20 20
nan nan nan nan nan nan nan nan nan nan nan nan nan nan nan nan nan nan nan 16 23 24 24 14 19 24 11 12 18 18 21 14 17 17 nan nan nan 8 nan nan nan nan 18 17 19
nan nan nan nan nan nan nan nan nan nan nan nan nan nan nan nan nan nan 5 14 18 21 13 12 10 15 11 13 7 14 18 19 25 9 nan nan nan nan nan nan nan nan 15 16 14
nan nan nan nan nan nan nan nan nan nan nan nan nan nan nan nan nan nan nan nan 17 19 19 13 15 15 15 11 13 22 21 23 21 25 nan nan nan nan nan nan nan nan nan 14 13
nan nan nan nan nan nan nan nan nan nan nan nan nan nan nan nan nan nan nan nan nan 9 13 15 15 9 13 15 18 14 nan nan 6 14 11 14 2 6 nan nan nan nan nan nan nan
nan nan nan nan nan nan nan nan nan nan nan nan nan nan nan nan nan nan nan nan nan nan nan 8 9 7 7 16 16 12 nan 4 17 20 21 nan 10 nan nan 25 nan nan nan nan nan
nan nan nan nan nan nan nan nan nan nan nan nan nan nan nan nan nan nan nan nan nan nan nan 18 10 7 8 9 14 nan nan nan nan nan 20 17 nan 30 13 19 nan nan nan nan nan
nan nan nan nan nan nan nan nan nan nan nan nan nan nan nan nan nan nan nan nan nan nan nan nan 5 8 13 7 12 11 7 11 nan nan nan nan nan 24 23 25 25 nan nan nan nan
nan nan nan nan nan nan nan nan nan nan nan nan nan nan nan nan nan nan nan nan nan nan nan nan 9 7 8 6 8 5 6 10 4 13 nan nan nan 23 27 nan nan nan nan nan nan
nan nan nan nan nan nan nan nan nan nan nan nan nan nan nan nan nan nan nan nan nan nan nan nan nan nan nan nan nan 8 7 12 4 9 13 13 nan 13 11 nan 26 nan nan 5 nan
nan nan nan nan nan nan nan nan nan nan nan nan nan nan nan nan nan nan nan nan nan nan nan nan nan nan nan nan nan 3 nan nan nan 11 7 17 1 12 18 23 nan nan nan 3 nan
nan nan nan nan nan nan nan nan nan nan nan nan nan nan nan nan nan nan nan nan nan nan nan nan nan nan nan nan nan nan nan nan nan 15 16 18 13 7 16 17 23 27 14 24 nan
nan nan nan nan nan nan nan nan nan nan nan nan nan nan nan nan nan nan nan nan nan nan nan nan nan nan nan nan nan nan nan nan nan 16 20 nan 25 8 18 25 21 nan 33 nan nan
nan nan nan nan nan nan nan nan nan nan nan nan nan nan nan nan nan nan nan nan nan nan nan nan nan nan nan nan nan nan nan nan nan nan nan nan nan 7 nan nan nan nan nan 17 nan
nan nan nan nan nan nan nan nan nan nan nan nan nan nan nan nan nan nan nan nan nan nan nan nan nan nan nan nan nan nan nan nan nan nan nan nan nan nan nan nan nan nan nan 28 nan
nan nan nan nan nan nan nan nan nan nan nan nan nan nan nan nan nan nan nan nan nan nan nan nan nan nan nan nan nan nan nan nan nan nan nan nan nan nan 24 nan nan 23 nan 34 14
nan nan nan nan nan nan nan nan nan nan nan nan nan nan nan nan nan nan nan nan nan nan nan nan nan nan nan nan nan nan nan nan nan nan nan nan nan nan 15 16 24 nan 27 nan 10
nan nan nan nan nan nan nan nan nan nan nan nan nan nan nan nan nan nan nan nan nan nan nan nan nan nan nan nan nan nan nan nan nan nan nan nan nan nan 13 17 22 21 25 25 12
nan nan nan nan nan nan nan nan nan nan nan nan nan nan nan nan nan nan nan nan nan nan nan nan nan nan nan nan nan nan nan nan nan nan nan nan nan 13 14 19 22 21 29 23 11
nan nan nan nan nan nan nan nan nan nan nan nan nan nan nan nan nan nan nan nan nan nan nan nan nan nan nan nan nan nan nan nan nan nan nan nan nan nan 22 24 18 21 21 14 16
nan nan nan nan nan nan nan nan nan nan nan nan nan nan nan nan nan nan nan nan nan nan nan nan nan nan nan nan nan nan nan nan nan nan nan nan nan 27 23 22 17 15 8 3 11
nan nan nan nan nan nan nan nan nan nan nan nan nan nan nan nan nan nan nan nan nan nan nan nan nan nan nan nan nan nan nan nan nan nan nan nan nan 25 27 24 18 11 10 5 4
nan nan nan nan nan nan nan nan nan nan nan nan nan nan nan nan nan nan nan nan nan nan nan nan nan nan nan nan nan nan nan nan nan nan nan nan nan nan 29 26 21 26 19 25 23
nan nan nan nan nan nan nan nan nan nan nan nan nan nan nan nan nan nan nan nan nan nan nan nan nan nan nan nan nan nan nan nan nan 44 33 26 25 32 35 22 18 24 32 36 33
nan nan nan nan nan nan nan nan nan nan nan nan nan nan nan nan nan nan nan nan nan nan nan nan nan nan nan nan nan nan nan 37 36 41 43 35 31 36 28 26 25 25 33 39 42
Wind_Direction
nan nan nan nan nan nan nan nan nan nan nan nan nan nan nan nan nan nan nan nan nan 66 nan 168 152 144 141 148 133 116 149 105 111 164 101 nan nan nan nan nan nan nan 356 19 352
nan nan nan nan nan nan nan nan nan nan nan nan nan nan nan nan nan nan nan nan 76 67 nan 123 169 148 135 135 120 nan nan nan 99 104 79 nan nan nan nan nan nan nan 299 328 343
nan nan nan nan nan nan nan nan nan nan nan nan nan nan nan nan nan nan nan 79 63 74 97 117 129 127 105 117 111 nan nan nan nan 74 nan nan nan nan nan nan nan nan 346 346 349
nan nan nan nan nan nan nan nan nan nan nan nan nan nan nan nan nan nan nan 68 78 86 120 104 130 151 140 97 101 126 106 104 90 70 nan nan nan 10 nan nan nan nan 354 349 355
nan nan nan nan nan nan nan nan nan nan nan nan nan nan nan nan nan nan 142 81 85 84 100 99 116 140 133 94 43 89 91 88 77 27 nan nan nan nan nan nan nan nan 354 359 4
nan nan nan nan nan nan nan nan nan nan nan nan nan nan nan nan nan nan nan nan 94 87 83 66 72 68 99 111 82 46 53 79 58 36 nan nan nan nan nan nan nan nan nan 15 12
nan nan nan nan nan nan nan nan nan nan nan nan nan nan nan nan nan nan nan nan nan 84 81 67 79 97 122 109 104 97 nan nan 22 354 31 344 335 41 nan nan nan nan nan nan nan
nan nan nan nan nan nan nan nan nan nan nan nan nan nan nan nan nan nan nan nan nan nan nan 136 84 85 114 103 122 144 nan 73 36 351 8 nan 11 nan nan 334 nan nan nan nan nan
nan nan nan nan nan nan nan nan nan nan nan nan nan nan nan nan nan nan nan nan nan nan nan 126 143 91 140 150 136 nan nan nan nan nan 359 338 nan 355 356 346 nan nan nan nan nan
nan nan nan nan nan nan nan nan nan nan nan nan nan nan nan nan nan nan nan nan nan nan nan nan 157 170 164 153 119 141 102 30 nan nan nan nan nan 3 359 3 357 nan nan nan nan
nan nan nan nan nan nan nan nan nan nan nan nan nan nan nan nan nan nan nan nan nan nan nan nan 192 105 95 123 133 140 94 86 6 1 nan nan nan 12 9 nan nan nan nan nan nan
nan nan nan nan nan nan nan nan nan nan nan nan nan nan nan nan nan nan nan nan nan nan nan nan nan nan nan nan nan 68 45 71 258 333 326 333 nan 350 347 nan 16 nan nan 335 nan
nan nan nan nan nan nan nan nan nan nan nan nan nan nan nan nan nan nan nan nan nan nan nan nan nan nan nan nan nan 65 nan nan nan 313 291 310 266 309 337 345 nan nan nan 181 nan
nan nan nan nan nan nan nan nan nan nan nan nan nan nan nan nan nan nan nan nan nan nan nan nan nan nan nan nan nan nan nan nan nan 303 321 302 298 288 324 349 344 346 319 255 nan
nan nan nan nan nan nan nan nan nan nan nan nan nan nan nan nan nan nan nan nan nan nan nan nan nan nan nan nan nan nan nan nan nan 285 288 nan 289 325 301 328 7 nan 355 nan nan
nan nan nan nan nan nan nan nan nan nan nan nan nan nan nan nan nan nan nan nan nan nan nan nan nan nan nan nan nan nan nan nan nan nan nan nan nan 5 nan nan nan nan nan 6 nan
nan nan nan nan nan nan nan nan nan nan nan nan nan nan nan nan nan nan nan nan nan nan nan nan nan nan nan nan nan nan nan nan nan nan nan nan nan nan nan nan nan nan nan 359 nan
nan nan nan nan nan nan nan nan nan nan nan nan nan nan nan nan nan nan nan nan nan nan nan nan nan nan nan nan nan nan nan nan nan nan nan nan nan nan 301 nan nan 349 nan 349 225
nan nan nan nan nan nan nan nan nan nan nan nan nan nan nan nan nan nan nan nan nan nan nan nan nan nan nan nan nan nan nan nan nan nan nan nan nan nan 313 317 341 nan 343 nan 295
nan nan nan nan nan nan nan nan nan nan nan nan nan nan nan nan nan nan nan nan nan nan nan nan nan nan nan nan nan nan nan nan nan nan nan nan nan nan 336 347 338 339 330 325 241
nan nan nan nan nan nan nan nan nan nan nan nan nan nan nan nan nan nan nan nan nan nan nan nan nan nan nan nan nan nan nan nan nan nan nan nan nan 317 354 329 339 330 324 309 345
nan nan nan nan nan nan nan nan nan nan nan nan nan nan nan nan nan nan nan nan nan nan nan nan nan nan nan nan nan nan nan nan nan nan nan nan nan nan 294 307 319 356 331 319 308
nan nan nan nan nan nan nan nan nan nan nan nan nan nan nan nan nan nan nan nan nan nan nan nan nan nan nan nan nan nan nan nan nan nan nan nan nan 297 304 295 315 2 358 103 32
nan nan nan nan nan nan nan nan nan nan nan nan nan nan nan nan nan nan nan nan nan nan nan nan nan nan nan nan nan nan nan nan nan nan nan nan nan 297 310 320 322 338 327 360 359
nan nan nan nan nan nan nan nan nan nan nan nan nan nan nan nan nan nan nan nan nan nan nan nan nan nan nan nan nan nan nan nan nan nan nan nan nan nan 291 296 298 297 265 252 258
nan nan nan nan nan nan nan nan nan nan nan nan nan nan nan nan nan nan nan nan nan nan nan nan nan nan nan nan nan nan nan nan nan 256 258 269 271 278 287 279 267 260 273 271 284
nan nan nan nan nan nan nan nan nan nan nan nan nan nan nan nan nan nan nan nan nan nan nan nan nan nan nan nan nan nan nan 267 261 252 262 270 270 281 291 295 269 269 276 283 292